Alva, OK

12:17 PM CDT on July 26, 2017 (GMT -0500)
Alva Regional

Weather History for KAVK - March, 2013

Change the Weather History Date:

Sunday, March 17, 2013

  Actual Average Record
Temperature  
Mean Temperature 38 °F -  
Max Temperature 42 °F 66 °F 82 °F (1977)
Min Temperature 35 °F 38 °F 20 °F (1949)
Degree Days  
Heating Degree Days 26    
Moisture  
Dew Point 32 °F    
Average Humidity 78    
Maximum Humidity 100    
Minimum Humidity 70    
Precipitation  
Precipitation 0.00 in - - ()
Sea Level Pressure  
Sea Level Pressure 29.83 in    
Wind  
Wind Speed 13 mph (ENE)    
Max Wind Speed 21 mph    
Max Gust Speed 29 mph    
Visibility 9 miles    
Events      
Averages and records for this station are not official NWS values.
T = Trace of Precipitation, MM = Missing Value Source: NWS Daily Summary

Daily Weather History Graph

Daily Weather History Graph

Search for Another Location

Airport or City:

Trip Planner

Search our weather history database for the weather conditions in past years. The results will help you decide how hot, cold, wet, or windy it might be!

Date:

Astronomy

Mar. 17, 2013 Rise Set
Actual Time 7:42 AM CDT 7:44 PM CDT
Civil Twilight 7:16 AM CDT 8:09 PM CDT
Nautical Twilight 6:46 AM CDT 8:40 PM CDT
Astronomical Twilight 6:15 AM CDT 9:10 PM CDT
Moon 11:04 AM CDT (3/17) 12:45 AM CDT (3/17)
Length of Visible Light 12h 53m
Length of Day
12h 01m
Waxing Crescent, 31% of the Moon is Illuminated
Mar 17
Waxing Crescent
Mar 19
First Quarter
Mar 27
Full
Apr 2
Last Quarter
Apr 10
New

Hourly Weather History & Observations

Time (CDT) Temp. Windchill Dew Point Humidity Pressure Visibility Wind Dir Wind Speed Gust Speed Precip Events Conditions
12:30 AM 39.2 °F 29.3 °F 30.2 °F 70% 29.97 in 10.0 mi NNE 20.7 mph - N/A   Overcast
12:50 AM 39.2 °F 30.2 °F 30.2 °F 70% 29.97 in 9.0 mi NNE 17.3 mph 23.0 mph N/A   Overcast
1:10 AM 37.4 °F 27.5 °F 30.2 °F 75% 29.97 in 10.0 mi NNE 18.4 mph 25.3 mph N/A   Overcast
1:30 AM 37.4 °F 26.9 °F 28.4 °F 70% 29.94 in 10.0 mi NNE 20.7 mph - N/A   Overcast
1:50 AM 37.4 °F 26.9 °F 28.4 °F 70% 29.95 in 9.0 mi NNE 20.7 mph 25.3 mph N/A   Overcast
2:10 AM 37.4 °F 26.9 °F 28.4 °F 70% 29.94 in 9.0 mi NNE 20.7 mph 28.8 mph N/A   Overcast
2:30 AM 37.4 °F 27.2 °F 28.4 °F 70% 29.94 in 9.0 mi NNE 19.6 mph 25.3 mph N/A   Overcast
2:50 AM 37.4 °F 27.2 °F 28.4 °F 70% 29.94 in 9.0 mi NE 19.6 mph 25.3 mph N/A   Overcast
3:10 AM 35.6 °F 25.9 °F 28.4 °F 75% 29.95 in 9.0 mi NNE 16.1 mph 23.0 mph N/A   Overcast
3:50 AM 37.4 °F 27.8 °F 28.4 °F 70% 29.93 in 9.0 mi NNE 17.3 mph 21.9 mph N/A   Overcast
4:10 AM 35.6 °F 25.5 °F 28.4 °F 75% 29.93 in 9.0 mi NE 17.3 mph 24.2 mph N/A   Overcast
4:30 AM 35.6 °F 24.8 °F 28.4 °F 75% 29.91 in 10.0 mi NE 19.6 mph 23.0 mph N/A   Overcast
4:50 AM 37.4 °F 28.5 °F 28.4 °F 70% 29.92 in 10.0 mi ENE 15.0 mph 21.9 mph N/A   Overcast
5:10 AM 37.4 °F 29.8 °F 28.4 °F 70% 29.92 in 8.0 mi NE 11.5 mph 21.9 mph N/A   Overcast
5:30 AM 37.4 °F 29.8 °F 28.4 °F 70% 29.92 in 9.0 mi ENE 11.5 mph - N/A   Overcast
5:50 AM 35.6 °F 28.0 °F 30.2 °F 81% 29.93 in 9.0 mi NE 10.4 mph - N/A   Overcast
6:10 AM 35.6 °F 29.2 °F 28.4 °F 75% 29.94 in 8.0 mi NNE 8.1 mph - N/A   Overcast
6:30 AM 35.6 °F 28.6 °F 28.4 °F 75% 29.94 in 10.0 mi NNE 9.2 mph - N/A   Overcast
6:50 AM 35.6 °F 28.0 °F 30.2 °F 81% 29.93 in 8.0 mi NE 10.4 mph - N/A   Overcast
7:10 AM 35.6 °F 26.6 °F 30.2 °F 81% 29.93 in 9.0 mi NE 13.8 mph - N/A   Overcast
7:30 AM 35.6 °F 27.5 °F 30.2 °F 81% 29.92 in 9.0 mi NNE 11.5 mph - N/A   Overcast
7:50 AM 35.6 °F 28.0 °F 30.2 °F 81% 29.92 in 9.0 mi NE 10.4 mph - N/A   Overcast
8:10 AM 35.6 °F 28.0 °F 30.2 °F 81% 29.91 in 8.0 mi NNE 10.4 mph - N/A   Overcast
8:30 AM 37.4 °F 30.3 °F 30.2 °F 75% 29.91 in 6.0 mi NE 10.4 mph - N/A   Haze
8:50 AM 37.4 °F 30.3 °F 30.2 °F 75% 29.90 in 7.0 mi NE 10.4 mph - N/A   Overcast
9:10 AM 37.4 °F 29.3 °F 30.2 °F 75% 29.90 in 9.0 mi NE 12.7 mph - N/A   Overcast
9:30 AM 37.4 °F 28.9 °F 30.2 °F 75% 29.90 in 8.0 mi NNE 13.8 mph 18.4 mph N/A   Overcast
9:50 AM 37.4 °F 29.8 °F 30.2 °F 75% 29.90 in 10.0 mi NNE 11.5 mph - N/A   Overcast
10:10 AM 37.4 °F 29.3 °F 28.4 °F 70% 29.90 in 9.0 mi NNE 12.7 mph - N/A   Overcast
10:30 AM 37.4 °F 30.3 °F 30.2 °F 75% 29.91 in 10.0 mi NNE 10.4 mph - N/A   Overcast
10:50 AM 37.4 °F 30.8 °F 30.2 °F 75% 29.91 in 8.0 mi NNE 9.2 mph - N/A   Overcast
11:10 AM 37.4 °F 31.4 °F 30.2 °F 75% 29.90 in 7.0 mi NNE 8.1 mph - N/A   Overcast
11:50 AM 39.2 °F 33.0 °F 32.0 °F 75% 29.90 in 7.0 mi NE 9.2 mph - N/A   Overcast
12:10 PM 39.2 °F 33.6 °F 32.0 °F 75% 29.89 in 8.0 mi NNE 8.1 mph - N/A   Overcast
12:30 PM 39.2 °F 35.0 °F 32.0 °F 75% 29.88 in 8.0 mi NNE 5.8 mph - N/A   Overcast
12:50 PM 39.2 °F 35.0 °F 32.0 °F 75% 29.87 in 7.0 mi NE 5.8 mph - N/A   Overcast
1:10 PM 39.2 °F 33.0 °F 32.0 °F 75% 29.86 in 7.0 mi NE 9.2 mph - N/A   Overcast
1:30 PM 39.2 °F 33.0 °F 32.0 °F 75% 29.86 in 9.0 mi NNE 9.2 mph - N/A   Overcast
1:50 PM 39.2 °F 34.2 °F 32.0 °F 75% 29.83 in 7.0 mi ENE 6.9 mph - N/A   Overcast
2:10 PM 39.2 °F 35.0 °F 32.0 °F 75% 29.82 in 9.0 mi NE 5.8 mph - N/A   Overcast
2:30 PM 39.2 °F 37.0 °F 33.8 °F 81% 29.81 in 9.0 mi NNE 3.5 mph - N/A   Overcast
2:50 PM 41.0 °F 37.1 °F 33.8 °F 76% 29.79 in 9.0 mi NNE 5.8 mph - N/A   Overcast
3:10 PM 41.0 °F 35.2 °F 33.8 °F 76% 29.75 in 10.0 mi ENE 9.2 mph - N/A   Overcast
3:30 PM 41.0 °F 36.4 °F 33.8 °F 76% 29.75 in 10.0 mi ENE 6.9 mph - N/A   Overcast
3:50 PM 42.8 °F 38.6 °F 35.6 °F 76% 29.74 in 10.0 mi East 6.9 mph - N/A   Overcast
4:10 PM 42.8 °F 39.3 °F 35.6 °F 76% 29.73 in 10.0 mi ESE 5.8 mph - N/A   Overcast
4:30 PM 42.8 °F 38.6 °F 35.6 °F 76% 29.72 in 10.0 mi East 6.9 mph - N/A   Overcast
4:50 PM 42.8 °F 37.5 °F 35.6 °F 76% 29.72 in 9.0 mi ENE 9.2 mph - N/A   Overcast
5:10 PM 42.8 °F 37.0 °F 35.6 °F 76% 29.70 in 10.0 mi ESE 10.4 mph - N/A   Overcast
5:30 PM 42.8 °F 38.0 °F 35.6 °F 76% 29.70 in 9.0 mi East 8.1 mph - N/A   Overcast
5:50 PM 42.8 °F 37.0 °F 35.6 °F 76% 29.69 in 10.0 mi ESE 10.4 mph - N/A   Overcast
6:10 PM 42.8 °F 37.5 °F 35.6 °F 76% 29.69 in 10.0 mi ESE 9.2 mph - N/A   Overcast
6:30 PM 41.0 °F 34.7 °F 35.6 °F 81% 29.69 in 10.0 mi ESE 10.4 mph - N/A   Overcast
6:50 PM 41.0 °F 35.8 °F 35.6 °F 81% 29.71 in 10.0 mi ESE 8.1 mph - N/A   Overcast
7:10 PM 41.0 °F 35.2 °F 35.6 °F 81% 29.70 in 10.0 mi SE 9.2 mph - N/A   Overcast
7:30 PM 41.0 °F 35.8 °F 35.6 °F 81% 29.71 in 9.0 mi SE 8.1 mph - N/A   Overcast
7:50 PM 41.0 °F 35.8 °F 35.6 °F 81% 29.70 in 10.0 mi ESE 8.1 mph - N/A   Overcast
8:10 PM 41.0 °F 38.0 °F 35.6 °F 81% 29.72 in 10.0 mi East 4.6 mph - N/A   Overcast
8:30 PM 41.0 °F 39.0 °F 35.6 °F 81% 29.74 in 10.0 mi East 3.5 mph - N/A   Overcast
8:50 PM 41.0 °F 36.4 °F 35.6 °F 81% 29.72 in 10.0 mi ESE 6.9 mph - N/A   Overcast
9:10 PM 41.0 °F 33.9 °F 35.6 °F 81% 29.69 in 10.0 mi ESE 12.7 mph - N/A   Overcast
9:30 PM 39.2 °F 31.2 °F 37.4 °F 93% 29.66 in 9.0 mi SE 13.8 mph - N/A   Mostly Cloudy
9:50 PM 39.2 °F 31.2 °F 37.4 °F 93% 29.68 in 9.0 mi SE 13.8 mph - N/A   Mostly Cloudy
10:10 PM 39.2 °F 33.0 °F 37.4 °F 93% 29.70 in 9.0 mi SSE 9.2 mph - N/A   Mostly Cloudy
10:30 PM 39.2 °F 33.6 °F 37.4 °F 93% 29.70 in 9.0 mi SE 8.1 mph - N/A   Scattered Clouds
10:50 PM 39.2 °F 33.6 °F 37.4 °F 93% 29.69 in 8.0 mi SE 8.1 mph - N/A   Mostly Cloudy
11:10 PM 37.4 °F 32.8 °F 37.4 °F 100% 29.68 in 6.0 mi ESE 5.8 mph - N/A   Overcast
11:30 PM 37.4 °F 32.8 °F 35.6 °F 93% 29.68 in 4.0 mi SE 5.8 mph - N/A   Mostly Cloudy
11:50 PM 37.4 °F 32.1 °F 35.6 °F 93% 29.68 in 4.0 mi ENE 6.9 mph - N/A   Mostly Cloudy